2015-05-21 01:56:59 r, 18.59m,0000000003Hz,0000142973c,0000000.310s, 012.8C,00002195
2015-05-21 02:06:59 r, 18.55m,0000000003Hz,0000136222c,0000000.296s, 016.7C,00002195
2015-05-21 02:16:59 r, 18.50m,0000000003Hz,0000130580c,0000000.283s, 019.6C,00002195
2015-05-21 02:26:58 r, 18.48m,0000000004Hz,0000127701c,0000000.277s, 021.5C,00002195
2015-05-21 02:37:01 r, 18.48m,0000000003Hz,0000127046c,0000000.276s, 022.5C,00002195
2015-05-21 02:46:59 r, 18.46m,0000000004Hz,0000125620c,0000000.273s, 022.8C,00002195
2015-05-21 02:56:58 r, 18.46m,0000000003Hz,0000124823c,0000000.271s, 023.5C,00002195
2015-05-21 03:07:01 r, 18.46m,0000000004Hz,0000124487c,0000000.270s, 023.5C,00002195
2015-05-21 03:16:58 r, 18.46m,0000000004Hz,0000125743c,0000000.273s, 023.5C,00002195
2015-05-21 03:26:58 r, 18.45m,0000000004Hz,0000123802c,0000000.269s, 023.5C,00002195
2015-05-21 03:36:58 r, 18.43m,0000000004Hz,0000120930c,0000000.262s, 023.5C,00002195
2015-05-21 03:46:59 r, 18.36m,0000000004Hz,0000114456c,0000000.248s, 023.2C,00002195
2015-05-21 03:56:58 r, 18.26m,0000000005Hz,0000103846c,0000000.225s, 023.2C,00002195
2015-05-21 04:06:58 r, 18.01m,0000000005Hz,0000083549c,0000000.181s, 023.2C,00002195
2015-05-21 04:17:01 r, 17.58m,0000000008Hz,0000055954c,0000000.121s, 022.8C,00002195
2015-05-21 04:26:58 r, 16.92m,0000000015Hz,0000030498c,0000000.066s, 022.8C,00002195
2015-05-21 04:36:59 r, 15.93m,0000000038Hz,0000012253c,0000000.027s, 022.5C,00002195
2015-05-21 04:46:58 r, 14.53m,0000000137Hz,0000000000c,0000000.000s, 022.5C,00002195
2015-05-21 04:56:58 r, 12.91m,0000000611Hz,0000000000c,0000000.000s, 022.5C,00002195
2015-05-21 05:07:01 r, 11.31m,0000002671Hz,0000000000c,0000000.000s, 022.2C,00002195
2015-05-21 05:16:58 r, 09.81m,0000010675Hz,0000000000c,0000000.000s, 022.2C,00002195
2015-05-21 05:26:58 r, 08.53m,0000034597Hz,0000000000c,0000000.000s, 021.9C,00002195
2015-05-21 05:36:59 r, 07.56m,0000084501Hz,0000000000c,0000000.000s, 021.9C,00002195
2015-05-21 05:46:58 r, 06.86m,0000161641Hz,0000000000c,0000000.000s, 021.9C,00002195
2015-05-21 05:56:58 r, 06.34m,0000258188Hz,0000000000c,0000000.000s, 021.9C,00002195
2015-05-21 06:06:58 r, 05.98m,0000362088Hz,0000000000c,0000000.000s, 021.9C,00002195
2015-05-21 06:16:59 r, 00.00m,0000469452Hz,0000000000c,0000000.000s, 021.9C,00002195
2015-05-21 06:26:58 r, 00.00m,0000568379Hz,0000000000c,0000000.000s, 022.2C,00002195
2015-05-21 06:36:59 r, 00.00m,0000563341Hz,0000000000c,0000000.000s, 022.5C,00002195
2015-05-21 06:46:59 r, 00.00m,0000563320Hz,0000000000c,0000000.000s, 022.5C,00002195
2015-05-21 06:56:58 r, 00.00m,0000563383Hz,0000000000c,0000000.000s, 022.8C,00002195
2015-05-21 07:07:01 r, 00.00m,0000563396Hz,0000000000c,0000000.000s, 023.2C,00002195
2015-05-21 07:16:58 r, 00.00m,0000563402Hz,0000000000c,0000000.000s, 023.5C,00002195
2015-05-21 07:26:58 r, 00.00m,0000563483Hz,0000000000c,0000000.000s, 023.8C,00002195
2015-05-21 07:36:58 r, 00.00m,0000563549Hz,0000000000c,0000000.000s, 024.1C,00002195
2015-05-21 07:47:00 r, 00.00m,0000563586Hz,0000000000c,0000000.000s, 024.4C,00002195
2015-05-21 07:56:58 r, 00.00m,0000563691Hz,0000000000c,0000000.000s, 024.8C,00002195
2015-05-21 08:06:58 r, 00.00m,0000563692Hz,0000000000c,0000000.000s, 025.1C,00002195
2015-05-21 08:16:59 r, 00.00m,0000563775Hz,0000000000c,0000000.000s, 025.4C,00002195
2015-05-21 08:26:58 r, 00.00m,0000563858Hz,0000000000c,0000000.000s, 025.7C,00002195
2015-05-21 08:36:58 r, 00.00m,0000563775Hz,0000000000c,0000000.000s, 026.1C,00002195
2015-05-21 08:46:58 r, 00.00m,0000563860Hz,0000000000c,0000000.000s, 026.7C,00002195
2015-05-21 08:56:58 r, 00.00m,0000563802Hz,0000000000c,0000000.000s, 026.7C,00002195
2015-05-21 09:06:59 r, 00.00m,0000564191Hz,0000000000c,0000000.000s, 029.6C,00002195
2015-05-21 09:16:58 r, 00.00m,0000564630Hz,0000000000c,0000000.000s, 033.5C,00002195
2015-05-21 09:26:58 r, 00.00m,0000564953Hz,0000000000c,0000000.000s, 036.7C,00002195
2015-05-21 09:36:59 r, 00.00m,0000565272Hz,0000000000c,0000000.000s, 039.0C,00002195
2015-05-21 09:47:00 r, 00.00m,0000565398Hz,0000000000c,0000000.000s, 040.9C,00002195
2015-05-21 09:56:59 r, 00.00m,0000565494Hz,0000000000c,0000000.000s, 042.2C,00002195
2015-05-21 10:07:01 r, 00.00m,0000565556Hz,0000000000c,0000000.000s, 043.5C,00002195
2015-05-21 10:16:59 r, 00.00m,0000565525Hz,0000000000c,0000000.000s, 044.1C,00002195
2015-05-21 10:26:58 r, 00.00m,0000565624Hz,0000000000c,0000000.000s, 045.1C,00002195
2015-05-21 10:36:59 r, 00.00m,0000565583Hz,0000000000c,0000000.000s, 045.4C,00002195
2015-05-21 10:46:59 r, 00.00m,0000565656Hz,0000000000c,0000000.000s, 046.0C,00002195
2015-05-21 10:56:58 r, 00.00m,0000565643Hz,0000000000c,0000000.000s, 046.4C,00002195
2015-05-21 11:06:59 r, 00.00m,0000565639Hz,0000000000c,0000000.000s, 046.4C,00002195
2015-05-21 11:17:01 r, 00.00m,0000565774Hz,0000000000c,0000000.000s, 046.7C,00002195
2015-05-21 11:26:58 r, 00.00m,0000565678Hz,0000000000c,0000000.000s, 047.0C,00002195
2015-05-21 11:36:59 r, 00.00m,0000565732Hz,0000000000c,0000000.000s, 047.3C,00002195
2015-05-21 11:46:59 r, 00.00m,0000565736Hz,0000000000c,0000000.000s, 047.3C,00002195
2015-05-21 11:56:58 r, 00.00m,0000565706Hz,0000000000c,0000000.000s, 047.7C,00002195
2015-05-21 12:07:01 r, 00.00m,0000565702Hz,0000000000c,0000000.000s, 047.7C,00002195
2015-05-21 12:16:59 r, 00.00m,0000565698Hz,0000000000c,0000000.000s, 048.3C,00002195
2015-05-21 12:26:58 r, 00.00m,0000565735Hz,0000000000c,0000000.000s, 048.6C,00002195
2015-05-21 12:37:00 r, 00.00m,0000565740Hz,0000000000c,0000000.000s, 048.6C,00002195
2015-05-21 12:46:59 r, 00.00m,0000565755Hz,0000000000c,0000000.000s, 048.9C,00002195
2015-05-21 12:56:58 r, 00.00m,0000565759Hz,0000000000c,0000000.000s, 049.6C,00002195
2015-05-21 13:07:00 r, 00.00m,0000565810Hz,0000000000c,0000000.000s, 049.9C,00002195
2015-05-21 13:16:59 r, 00.00m,0000565784Hz,0000000000c,0000000.000s, 050.2C,00002195
2015-05-21 13:26:58 r, 00.00m,0000565811Hz,0000000000c,0000000.000s, 050.2C,00002195
2015-05-21 13:37:01 r, 00.00m,0000565819Hz,0000000000c,0000000.000s, 050.2C,00002195
2015-05-21 13:46:59 r, 00.00m,0000565724Hz,0000000000c,0000000.000s, 049.9C,00002195
2015-05-21 13:56:58 r, 00.00m,0000565711Hz,0000000000c,0000000.000s, 049.9C,00002195
2015-05-21 14:07:01 r, 00.00m,0000565862Hz,0000000000c,0000000.000s, 050.2C,00002195
2015-05-21 14:16:59 r, 00.00m,0000565857Hz,0000000000c,0000000.000s, 050.6C,00002195
2015-05-21 14:26:58 r, 00.00m,0000565833Hz,0000000000c,0000000.000s, 050.6C,00002195
2015-05-21 14:36:58 r, 00.00m,0000565857Hz,0000000000c,0000000.000s, 050.6C,00002195
2015-05-21 14:46:58 r, 00.00m,0000565786Hz,0000000000c,0000000.000s, 050.9C,00002195
2015-05-21 14:56:58 r, 00.00m,0000565760Hz,0000000000c,0000000.000s, 050.6C,00002195
2015-05-21 15:06:58 r, 00.00m,0000565746Hz,0000000000c,0000000.000s, 050.6C,00002195
2015-05-21 15:17:01 r, 00.00m,0000565720Hz,0000000000c,0000000.000s, 050.6C,00002195
2015-05-21 15:26:58 r, 00.00m,0000565641Hz,0000000000c,0000000.000s, 049.9C,00002195
2015-05-21 15:36:58 r, 00.00m,0000565670Hz,0000000000c,0000000.000s, 049.9C,00002195
2015-05-21 15:47:01 r, 00.00m,0000565606Hz,0000000000c,0000000.000s, 049.6C,00002195
2015-05-21 15:56:58 r, 00.00m,0000565622Hz,0000000000c,0000000.000s, 049.3C,00002195
2015-05-21 16:06:58 r, 00.00m,0000565602Hz,0000000000c,0000000.000s, 049.6C,00002195
2015-05-21 16:16:59 r, 00.00m,0000565593Hz,0000000000c,0000000.000s, 049.3C,00002195
2015-05-21 16:26:59 r, 00.00m,0000565567Hz,0000000000c,0000000.000s, 048.9C,00002195
2015-05-21 16:36:59 r, 00.00m,0000565599Hz,0000000000c,0000000.000s, 049.6C,00002195
2015-05-21 16:47:00 r, 00.00m,0000565612Hz,0000000000c,0000000.000s, 049.9C,00002195
2015-05-21 16:56:59 r, 00.00m,0000565543Hz,0000000000c,0000000.000s, 050.2C,00002195
2015-05-21 17:06:59 r, 00.00m,0000565490Hz,0000000000c,0000000.000s, 049.6C,00002195
2015-05-21 17:16:59 r, 00.00m,0000565407Hz,0000000000c,0000000.000s, 048.3C,00002195
2015-05-21 17:26:59 r, 00.00m,0000565343Hz,0000000000c,0000000.000s, 047.0C,00002195
2015-05-21 17:36:59 r, 00.00m,0000565284Hz,0000000000c,0000000.000s, 045.7C,00002195
2015-05-21 17:47:01 r, 00.00m,0000565247Hz,0000000000c,0000000.000s, 046.0C,00002195
2015-05-21 17:56:59 r, 00.00m,0000565319Hz,0000000000c,0000000.000s, 046.0C,00002195
2015-05-21 18:06:59 r, 00.00m,0000565356Hz,0000000000c,0000000.000s, 046.0C,00002195
2015-05-21 18:16:59 r, 00.00m,0000565276Hz,0000000000c,0000000.000s, 045.7C,00002195
2015-05-21 18:26:59 r, 00.00m,0000565184Hz,0000000000c,0000000.000s, 045.1C,00002195
2015-05-21 18:36:59 r, 00.00m,0000565118Hz,0000000000c,0000000.000s, 044.4C,00002195
2015-05-21 18:46:59 r, 00.00m,0000565094Hz,0000000000c,0000000.000s, 043.8C,00002195
2015-05-21 18:56:59 r, 00.00m,0000565008Hz,0000000000c,0000000.000s, 043.8C,00002195
2015-05-21 19:06:59 r, 00.00m,0000565001Hz,0000000000c,0000000.000s, 042.8C,00002195
2015-05-21 19:16:59 r, 00.00m,0000564958Hz,0000000000c,0000000.000s, 042.2C,00002195
2015-05-21 19:26:59 r, 00.00m,0000564915Hz,0000000000c,0000000.000s, 040.9C,00002195
2015-05-21 19:36:59 r, 00.00m,0000564761Hz,0000000000c,0000000.000s, 040.6C,00002195
2015-05-21 19:46:59 r, 00.00m,0000564824Hz,0000000000c,0000000.000s, 040.6C,00002195
2015-05-21 19:57:00 r, 00.00m,0000564739Hz,0000000000c,0000000.000s, 039.9C,00002195
2015-05-21 20:06:59 r, 00.00m,0000564664Hz,0000000000c,0000000.000s, 039.0C,00002195
2015-05-21 20:17:01 r, 00.00m,0000564669Hz,0000000000c,0000000.000s, 038.0C,00002195
2015-05-21 20:26:59 r, 00.00m,0000564506Hz,0000000000c,0000000.000s, 036.7C,00002195
2015-05-21 20:36:59 r, 00.00m,0000504693Hz,0000000000c,0000000.000s, 036.0C,00002195
2015-05-21 20:47:00 r, 00.00m,0000426773Hz,0000000000c,0000000.000s, 035.4C,00002195
2015-05-21 20:56:59 r, 06.53m,0000217547Hz,0000000000c,0000000.000s, 034.4C,00002195
2015-05-21 21:06:59 r, 06.89m,0000155977Hz,0000000000c,0000000.000s, 034.1C,00002195
2015-05-21 21:16:59 r, 07.76m,0000070367Hz,0000000000c,0000000.000s, 033.5C,00002195
2015-05-21 21:27:01 r, 08.92m,0000024027Hz,0000000000c,0000000.000s, 032.8C,00002195
2015-05-21 21:36:59 r, 10.26m,0000007021Hz,0000000000c,0000000.000s, 031.9C,00002195
2015-05-21 21:46:59 r, 11.78m,0000001723Hz,0000000000c,0000000.000s, 031.5C,00002195
2015-05-21 21:56:59 r, 13.38m,0000000394Hz,0000000000c,0000000.000s, 031.2C,00002195
2015-05-21 22:06:59 r, 14.95m,0000000093Hz,0000004996c,0000000.011s, 030.6C,00002195
2015-05-21 22:16:59 r, 16.19m,0000000029Hz,0000015605c,0000000.034s, 030.2C,00002195
2015-05-21 22:26:59 r, 17.03m,0000000014Hz,0000033965c,0000000.074s, 029.9C,00002195
2015-05-21 22:36:59 r, 17.61m,0000000008Hz,0000057576c,0000000.125s, 029.6C,00002195
2015-05-21 22:47:00 r, 17.92m,0000000006Hz,0000077067c,0000000.167s, 029.3C,00002195
2015-05-21 22:56:59 r, 18.10m,0000000005Hz,0000090256c,0000000.196s, 029.3C,00002195
2015-05-21 23:06:59 r, 18.20m,0000000004Hz,0000098967c,0000000.215s, 029.0C,00002195
2015-05-21 23:16:59 r, 18.24m,0000000004Hz,0000102724c,0000000.223s, 028.6C,00002195
2015-05-21 23:26:59 r, 18.27m,0000000004Hz,0000105611c,0000000.229s, 028.3C,00002195
2015-05-21 23:36:59 r, 18.28m,0000000004Hz,0000106540c,0000000.231s, 028.3C,00002195
2015-05-21 23:46:59 r, 18.29m,0000000005Hz,0000107232c,0000000.233s, 028.0C,00002195
2015-05-21 23:57:00 r, 18.30m,0000000004Hz,0000108428c,0000000.235s, 028.0C,00002195
